Rbgn^[z[y[W
メイン
   新天体発見情報
     Comet C/2022 P3 (ZTF)
投稿するにはまず登録を

スレッド表示 | 古いものから 前のトピック | 次のトピック | 下へ
投稿者 スレッド
佐藤裕久
投稿日時: 2022-9-12 12:19
モデレータ
登録日: 2005-6-12
居住地: 日本
投稿: 2687
オンライン
Comet C/2022 P3 (ZTF)

Bryce T. Bolin (カリフォルニア工科大学赤外線処理解析センター, Goddard宇宙飛行センター)
の通報によると、"Zwicky Transient Facility(ZTF)の共同" としてのPalomarにある、1.2-m 
Schmidt望遠鏡で得たCCD画像から彗星を発見した。この天体は、8月2.49日UT、当初彗星のよう
な形をしていることが確認された("尾部"パイプラインを使った"人工知能"による補助による)。
この彗星は、8月2日と5日のZTF画像で幅約4"のコマが見え、p.a. 約220°に約7" の広い尾がある。
半径5"の範囲で測定したZTF r-バンド測光はPS1等級系に較正すると、二夜ともそれぞれ19.0等と
18.9等であった。
小惑星センターのPCCP webpageに公表後、佐藤英貴氏(東京都文京区,8月8.45-8.46日UT, 60-秒
露出14枚のスタック, 0.51-m f/6.8 アストログラフ, Mayhill近郊, ニューメキシコ州,  米国,
遠隔操作: 強く集光した8"のコマが見えるが尾はなかった。4".9の円形範囲で測定した光度は
18.8等であった)らによって彗星状と観測された。

彗星機能の報告は次のとおり、

OC   Date        Reporter           Coma    Tail    PA          Exposures
H06  2022-08-08  H. Sato            8"                         14x60s
204  2022-08-20  L. Buzzi           7"                         52x30s

発見位置は次のとおり、

     2022 UT             R.A. (2000) Decl.       Mag.
     Sept. 1.35438   22 22 39.17   - 6 31 46.5   20.8
           1.36585   22 22 38.83   - 6 31 49.4   20.9
           1.37737   22 22 38.50   - 6 31 52.1   21.1
           1.38889   22 22 38.15   - 6 31 54.9   21.0
           1.49978   22 22 34.82   - 6 32 21.8   20.4
           1.50042   22 22 34.81   - 6 32 21.9   20.8

MPCの楕円軌道要素、位置推算表は次のとおり、

Orbital elements:
    C/2022 P3 (ZTF)                                                             
Epoch 2022 Aug. 9.0 TT = JDT 2459800.5                                          
T 2022 July 27.40390 TT                                 Rudenko                 
q   2.5619005            (2000.0)            P               Q                  
z  +0.0035268      Peri.    0.11251     +0.30410139     -0.48371901             
 +/-0.0000003      Node    72.23879     +0.87335529     -0.20252482             
e   0.9909647      Incl.   59.51579     +0.38049032     +0.85146909             
From 83 observations 2022 Aug. 2-Sept. 7, mean residual 0".4.                   
                                                                                
Ephemeris:
Date    TT    R. A. (2000) Decl.     Delta      r    Elong.  Phase   m1
2022 08 09    06 03 37.4 +26 28 53   3.1740  2.5654    45.4    16.3  18.6
...
2022 08 24    06 27 06.1 +30 12 48   3.0235  2.5788    54.9    18.7  18.5
...
2022 09 01    06 39 36.1 +32 18 10   2.9388  2.5900    60.2    19.8  18.5
...
2022 09 07    06 48 55.8 +33 55 53   2.8742  2.6001    64.3    20.4  18.4
2022 09 08    06 50 28.7 +34 12 31   2.8634  2.6020    64.9    20.5  18.4
2022 09 09    06 52 01.6 +34 29 15   2.8526  2.6039    65.6    20.6  18.4
...
2022 09 15    07 01 16.4 +36 12 06   2.7876  2.6160    69.8    21.1  18.4
...
2022 09 23    07 13 27.6 +38 36 16   2.7018  2.6346    75.4    21.6  18.4
...
2022 10 08    07 35 35.5 +43 32 02   2.5487  2.6761    86.3    21.9  18.3

(MPEC 2022-R132、CBET 5169)

スレッド表示 | 古いものから 前のトピック | 次のトピック | トップ

投稿するにはまず登録を
 
© 1999 Tsutomu Seki.